Weather History for KHDN - April, 2013

Change the Weather History Date:

Wednesday, April 17, 2013

  Actual Average Record
Temperature  
Mean Temperature 18 °F -  
Max Temperature 24 °F 60 °F 76 °F (1987)
Min Temperature 12 °F 30 °F 11 °F (1960)
Degree Days  
Heating Degree Days 47    
Moisture  
Dew Point 16 °F    
Average Humidity 87    
Maximum Humidity 93    
Minimum Humidity 74    
Precipitation  
Precipitation 0.00 in - - ()
Sea Level Pressure  
Sea Level Pressure 29.89 in    
Wind  
Wind Speed 8 mph (WNW)    
Max Wind Speed 15 mph    
Max Gust Speed 18 mph    
Visibility 3 miles    
Events      
Averages and records for this station are not official NWS values.
T = Trace of Precipitation, MM = Missing Value Source: NWS Daily Summary

Daily Weather History Graph

Daily Weather History Graph

Search for Another Location

Airport or City:

Trip Planner

Search our weather history database for the weather conditions in past years. The results will help you decide how hot, cold, wet, or windy it might be!

Date:

Astronomy

Apr. 17, 2013 Rise Set
Actual Time 6:26 AM MDT 7:50 PM MDT
Civil Twilight 5:58 AM MDT 8:18 PM MDT
Nautical Twilight 5:24 AM MDT 8:53 PM MDT
Astronomical Twilight 4:48 AM MDT 9:29 PM MDT
Moon 11:43 AM MDT (4/17) 1:30 AM MDT (4/17)
Length of Visible Light 14h 20m
Length of Day
13h 23m
Waxing Crescent, 43% of the Moon is Illuminated
Apr 17
Waxing Crescent
Apr 18
First Quarter
Apr 25
Full
May 2
Last Quarter
May 9
New

Hourly Weather History & Observations

Time (MDT) Temp. Windchill Dew Point Humidity Pressure Visibility Wind Dir Wind Speed Gust Speed Precip Events Conditions
12:15 AM 19.4 °F 12.8 °F 17.6 °F 93% 29.89 in 2.0 mi NW 4.6 mph - N/A   Overcast
12:35 AM 19.4 °F 10.4 °F 17.6 °F 93% 29.88 in 1.2 mi NW 6.9 mph - N/A   Overcast
12:55 AM 19.4 °F 11.5 °F 17.6 °F 93% 29.88 in 1.5 mi NW 5.8 mph - N/A   Overcast
1:15 AM 19.4 °F 11.5 °F 17.6 °F 93% 29.87 in 1.0 mi NNW 5.8 mph - N/A   Overcast
1:35 AM 19.4 °F 9.5 °F 17.6 °F 93% 29.87 in 1.8 mi NNW 8.1 mph - N/A   Overcast
1:55 AM 19.4 °F 11.5 °F 17.6 °F 93% 29.87 in 3.0 mi NNW 5.8 mph - N/A   Scattered Clouds
2:15 AM 19.4 °F 10.4 °F 15.8 °F 86% 29.86 in 2.0 mi NW 6.9 mph - N/A   Overcast
2:35 AM 19.4 °F 9.5 °F 15.8 °F 86% 29.85 in 2.0 mi NW 8.1 mph - N/A   Mostly Cloudy
2:55 AM 17.6 °F 6.4 °F 15.8 °F 93% 29.85 in 3.0 mi NW 9.2 mph - N/A   Scattered Clouds
3:15 AM 17.6 °F 5.7 °F 15.8 °F 93% 29.84 in 3.0 mi NW 10.4 mph - N/A   Mostly Cloudy
3:35 AM 17.6 °F 5.7 °F 15.8 °F 93% 29.84 in 2.5 mi NW 10.4 mph - N/A   Overcast
3:55 AM 17.6 °F 7.3 °F 15.8 °F 93% 29.84 in 1.2 mi NW 8.1 mph - N/A   Overcast
4:15 AM 17.6 °F 7.3 °F 15.8 °F 93% 29.84 in 0.8 mi NW 8.1 mph - N/A   Overcast
4:35 AM 17.6 °F 8.2 °F 15.8 °F 93% 29.84 in 0.8 mi NW 6.9 mph - N/A   Overcast
4:55 AM 17.6 °F 10.7 °F 15.8 °F 93% 29.83 in 1.5 mi NNW 4.6 mph - N/A   Overcast
5:15 AM 17.6 °F 7.3 °F 15.8 °F 93% 29.83 in 0.8 mi NW 8.1 mph - N/A   Overcast
5:35 AM 17.6 °F 8.2 °F 14.0 °F 86% 29.82 in 2.0 mi NW 6.9 mph - N/A   Overcast
5:55 AM 17.6 °F 8.2 °F 14.0 °F 86% 29.82 in 2.5 mi NW 6.9 mph - N/A   Overcast
6:35 AM 17.6 °F 8.2 °F 15.8 °F 93% 29.81 in 2.5 mi NW 6.9 mph - N/A   Partly Cloudy
6:55 AM 17.6 °F 7.3 °F 14.0 °F 86% 29.81 in 2.0 mi NW 8.1 mph - N/A   Overcast
7:15 AM 17.6 °F 8.2 °F 14.0 °F 86% 29.81 in 1.2 mi WNW 6.9 mph - N/A   Overcast
7:35 AM 17.6 °F 7.3 °F 14.0 °F 86% 29.81 in 1.0 mi NW 8.1 mph - N/A   Overcast
8:15 AM 17.6 °F 8.2 °F 14.0 °F 86% 29.82 in 1.0 mi WNW 6.9 mph - N/A   Overcast
8:35 AM 17.6 °F 6.4 °F 15.8 °F 93% 29.81 in 0.5 mi NW 9.2 mph - N/A   Overcast
8:55 AM 17.6 °F 7.3 °F 15.8 °F 93% 29.81 in 0.5 mi WNW 8.1 mph - N/A   Overcast
9:15 AM 17.6 °F 7.3 °F 15.8 °F 93% 29.81 in 0.5 mi WNW 8.1 mph - N/A   Overcast
9:35 AM 17.6 °F 7.3 °F 15.8 °F 93% 29.82 in 0.8 mi West 8.1 mph - N/A   Overcast
9:55 AM 17.6 °F 7.3 °F 15.8 °F 93% 29.82 in 0.5 mi WNW 8.1 mph - N/A   Overcast
10:15 AM 17.6 °F 7.3 °F 15.8 °F 93% 29.83 in 0.8 mi West 8.1 mph - N/A   Overcast
10:35 AM 17.6 °F 6.4 °F 15.8 °F 93% 29.84 in 0.5 mi West 9.2 mph - N/A   Overcast
10:55 AM 19.4 °F 7.9 °F 15.8 °F 86% 29.84 in 0.5 mi West 10.4 mph - N/A   Overcast
11:15 AM 19.4 °F 6.0 °F 17.6 °F 93% 29.84 in 0.8 mi WNW 13.8 mph - N/A   Overcast
11:35 AM 21.2 °F 8.3 °F 17.6 °F 86% 29.85 in 1.5 mi WNW 13.8 mph - N/A   Overcast
11:55 AM 19.4 °F 5.5 °F 15.8 °F 86% 29.83 in 2.0 mi NW 15.0 mph - N/A   Overcast
12:15 PM 21.2 °F 7.8 °F 17.6 °F 86% 29.85 in 5.0 mi NW 15.0 mph - N/A   Overcast
12:35 PM 21.2 °F 8.9 °F 15.8 °F 80% 29.86 in 2.5 mi WNW 12.7 mph - N/A   Overcast
12:55 PM 21.2 °F 7.8 °F 15.8 °F 80% 29.86 in 7.0 mi NW 15.0 mph - N/A   Scattered Clouds
1:15 PM 21.2 °F 8.3 °F 15.8 °F 80% 29.85 in 2.5 mi WNW 13.8 mph - N/A   Partly Cloudy
1:35 PM 23.0 °F 10.1 °F 17.6 °F 80% 29.86 in 7.0 mi WNW 15.0 mph 18.4 mph N/A   Partly Cloudy
1:55 PM 23.0 °F 10.6 °F 15.8 °F 74% 29.88 in 10.0 mi WNW 13.8 mph - N/A   Partly Cloudy
2:35 PM 23.0 °F 11.1 °F 17.6 °F 80% 29.90 in 2.0 mi WNW 12.7 mph - N/A   Scattered Clouds
2:55 PM 23.0 °F 10.1 °F 17.6 °F 80% 29.90 in 1.8 mi WNW 15.0 mph - N/A   Scattered Clouds
3:15 PM 23.0 °F 10.6 °F 17.6 °F 80% 29.90 in 1.8 mi WNW 13.8 mph - N/A   Scattered Clouds
3:35 PM 23.0 °F 11.1 °F 17.6 °F 80% 29.90 in 1.8 mi WNW 12.7 mph - N/A   Mostly Cloudy
3:55 PM 24.8 °F 12.9 °F 17.6 °F 74% 29.90 in 4.0 mi WNW 13.8 mph 18.4 mph N/A   Scattered Clouds
4:15 PM 24.8 °F 14.6 °F 17.6 °F 74% 29.91 in 3.0 mi WNW 10.4 mph - N/A   Mostly Cloudy
4:35 PM 23.0 °F 12.4 °F 19.4 °F 86% 29.91 in 2.0 mi West 10.4 mph - N/A   Overcast
4:55 PM 23.0 °F 13.1 °F 19.4 °F 86% 29.92 in 2.5 mi NW 9.2 mph - N/A   Mostly Cloudy
5:15 PM 23.0 °F 13.1 °F 17.6 °F 80% 29.93 in 2.5 mi NW 9.2 mph - N/A   Overcast
5:35 PM 23.0 °F 13.1 °F 17.6 °F 80% 29.94 in 5.0 mi WNW 9.2 mph - N/A   Mostly Cloudy
5:55 PM 23.0 °F 12.4 °F 17.6 °F 80% 29.95 in 9.0 mi WNW 10.4 mph - N/A   Partly Cloudy
6:15 PM 21.2 °F 10.1 °F 17.6 °F 86% 29.95 in 7.0 mi WNW 10.4 mph - N/A   Clear
6:35 PM 21.2 °F 9.5 °F 17.6 °F 86% 29.96 in 8.0 mi WNW 11.5 mph - N/A   Clear
6:55 PM 19.4 °F 7.9 °F 15.8 °F 86% 29.96 in 6.0 mi West 10.4 mph - N/A   Partly Cloudy
7:15 PM 19.4 °F 7.2 °F 15.8 °F 86% 29.97 in 5.0 mi West 11.5 mph - N/A   Mostly Cloudy
7:35 PM 19.4 °F 7.9 °F 15.8 °F 86% 29.97 in 4.0 mi WNW 10.4 mph - N/A   Mostly Cloudy
7:55 PM 17.6 °F 6.4 °F 14.0 °F 86% 29.98 in 7.0 mi WNW 9.2 mph - N/A   Scattered Clouds
8:15 PM 17.6 °F 8.2 °F 14.0 °F 86% 29.99 in 5.0 mi West 6.9 mph - N/A   Mostly Cloudy
8:35 PM 17.6 °F 9.3 °F 14.0 °F 86% 30.00 in 10.0 mi WNW 5.8 mph - N/A   Scattered Clouds
9:15 PM 17.6 °F 9.3 °F 15.8 °F 93% 30.02 in 2.5 mi WSW 5.8 mph - N/A   Partly Cloudy
9:35 PM 17.6 °F 10.7 °F 15.8 °F 93% 30.02 in 5.0 mi SW 4.6 mph - N/A   Mostly Cloudy
9:55 PM 17.6 °F 8.2 °F 14.0 °F 86% 30.03 in 4.0 mi WSW 6.9 mph - N/A   Scattered Clouds
10:15 PM 17.6 °F 9.3 °F 14.0 °F 86% 30.04 in 5.0 mi WSW 5.8 mph - N/A   Mostly Cloudy
10:35 PM 17.6 °F 8.2 °F 12.2 °F 79% 30.04 in 6.0 mi NW 6.9 mph - N/A   Mostly Cloudy
10:55 PM 15.8 °F 4.2 °F 10.4 °F 79% 30.04 in 10.0 mi WNW 9.2 mph - N/A   Scattered Clouds
11:15 PM 12.2 °F 1.7 °F 6.8 °F 79% 30.05 in 10.0 mi WNW 6.9 mph - N/A   Scattered Clouds
11:35 PM 12.2 °F 1.7 °F 8.6 °F 85% 30.05 in 10.0 mi WNW 6.9 mph - N/A   Partly Cloudy
11:55 PM 12.2 °F 1.7 °F 8.6 °F 85% 30.06 in 10.0 mi NW 6.9 mph - N/A   Clear